Showing default

ASTRANIS UTILITYSAT, 62454

Orbit data source: Space-Track

ASTRANIS UTILITYSAT, 62454 is a UK payload satellite in HEO that was launched on Sun, 29 Dec 2024 UTC via an FALCON 9 launch vehicle from the Air Force Eastern Test Range (AFETR). Payload-class satellites include a variety of spacecraft equipped with specific instruments for various scientific and technological missions. These include communications satellites like Starlink; space stations such as the ISS; scientific satellites like the Hubble; Earth observation satellites from companies like Planet Labs, Umbra, and HawkEye 360; GPS; miniature CubeSats for education and research; and military/defense satellites.

Loading next visibility...
Identifier
62454, 2024-252A
Orbit
HEO
Country
Flag of UKUK
Related business
Manufacturer
Astranis
Mission
Operational Commercial Communications
Bus & Motor
MICROGEO, EP
Mass
400 kg wet, 400 kg dry
Launch date (UTC)
2024-12-29 (1 year ago)
Launch vehicle
FALCON 9
Launch site
Air Force Eastern Test Range (AFETR)
Object type
Payload
Rocket body
Debris
Shape & HBR
Box + 22 Pan, 5.0 m
Radar Cross Section
41.175 m², Large (>1 m²)

Expand to show TLE details & history
Last TLE update: 4 months ago

TLE from 4 months ago
0 ASTRANIS UTILITYSAT
1 62454U 24252A   26036.36662196 -.00000141  00000-0  00000+0 0  9998
2 62454   9.0086 332.5475 7515191 238.8027  28.0513  1.00326217  4100
Epoch: 2026-02-05T08:47Z
TLE epoch observation values (Epoch: 2026-02-05T08:47:56.137Z)
Latitude
0.00023°
Longitude
65.32474°
Altitude
24,051.007 km
Speed
4.092 km/s
True Right ascension
22h 11m 18s
True Declination
0° 00' 01"
Sunlit
Object was in daylight at epoch
Visualization orbit readout
Latitude
Unknown
Longitude
Unknown
Altitude
Unknown
Speed
Unknown
Apparent Right ascension
Unknown
Apparent Declination
Unknown
Sunlit
N/A
Visualization observer readout
Local Sidereal Time
01:36:15
Azimuth
Unknown
Elevation
Unknown
Doppler factor
Unknown
Orbital elements
Apogee altitude
67,453.667 km
Perigee altitude
4,096.081 km
Semi-major axis
42,153.011 km
Eccentricity
0.75152
Inclination
9.0086°
RAAN
332.5475°
Arg. of periapsis
238.8027°
True anomaly
121.60908°
Mean anomaly
28.0513°
Eccentric anomaly
67.9649°
Mean motion
0.25078 °/min
Orbital period
1,435.5 mins
BSTAR
0
Loading maneuver chart data...
Computing Atmospheric mass density...
Loading historical data...
Loading historical data...
Loading historical data...
Loading historical data...
Loading historical data...
Loading historical data...
Loading historical data...
Other satellites on launch #252 in the year 2024 (2024-12-29 UTC)

Documentation

Showing up to 5 results
|